Home   Weather   Yekaterinburg   Past weeks

Flag for Russia Past Weather in Yekaterinburg, Russia — Yesterday and Last 2 Weeks

Now
50 °F

Passing clouds.


Feels Like: 45 °F
Forecast: 43 / 55 °F
Wind: 13 mph from West

Location: Ekaterinburg

Current Time: Apr 29, 2017 at 3:08:13 am

Latest Report: Apr 29, 2017 at 2:30 am


Visibility: N/A

Pressure: 30.15 "Hg

Humidity: 71%

Dew Point: 41 °F

Location of YekaterinburgLocation

Past Weather in Yekaterinburg — Graph

°F

Yekaterinburg Temperature Yesterday

Maximum temperature yesterday: 68 °F (at 1:30 pm)
Minimum temperature yesterday: 45 °F (at 2:00 am)
Average temperature yesterday: 57 °F

High & Low Weather Summary for the Past Weeks

 TemperatureHumidityPressure
High68 °F (Apr 28, 1:30 pm)100% (Apr 15, 9:00 am)30.27 "Hg (Apr 15, 9:00 am)
Low27 °F (Apr 22, 4:00 am)18% (Apr 22, 3:00 pm)29.12 "Hg (Apr 15, 11:00 pm)
Average44 °F62%29.84 "Hg
* Reported Apr 14 2:00 am — Apr 29 2:00 am, Yekaterinburg, Weather by CustomWeather, © 2017

Note: Actual official high and low records may vary slightly from our data, if they occured in-between our weather recording intervals... More about our weather records

Advertising

Yekaterinburg Weather History for the Previous 24 Hours

Scroll right to see more
 ConditionsComfort  
Time TempWeatherWind HumidityBarometerVisibility
2:00 am
Sat, Apr 29
50 °FPassing clouds.13 mph71%30.15 "HgN/A
1:30 am50 °FClear.13 mph71%30.12 "Hg10 mi
1:00 am50 °FClear.10 mph71%30.12 "Hg10 mi
12:30 am52 °FClear.13 mph67%30.12 "Hg10 mi
12:00 am52 °FPassing clouds.8 mph67%30.09 "HgN/A
11:30 pm
Fri, Apr 28
54 °FPassing clouds.6 mph63%30.09 "HgN/A
11:00 pm54 °FClear.8 mph63%30.09 "Hg10 mi
10:30 pm55 °FPassing clouds.20 mph55%30.09 "HgN/A
10:00 pm59 °FClear.13 mph42%30.04 "Hg10 mi
9:30 pm61 °FClear.10 mph39%30.04 "Hg10 mi
9:00 pm57 °FClear.6 mph44%30.04 "Hg10 mi
8:30 pm59 °FSunny.8 mph42%30.04 "Hg10 mi
8:00 pm64 °FSunny.13 mph34%30.04 "Hg10 mi
7:30 pm64 °FSunny.17 mph32%30.04 "Hg10 mi
7:00 pm66 °FSunny.20 mph30%30.04 "Hg10 mi
6:30 pm66 °FSunny.22 mph30%30.04 "Hg10 mi
6:00 pm68 °FSunny.20 mph28%30.04 "Hg10 mi
5:00 pm68 °FSunny.24 mph26%30.04 "Hg10 mi
4:30 pm68 °FSunny.24 mph26%30.04 "Hg10 mi
4:00 pm68 °FSunny.24 mph26%30.04 "Hg10 mi
3:30 pm68 °FSunny.22 mph28%30.04 "Hg10 mi
3:00 pm66 °FSunny.24 mph30%30.04 "Hg10 mi
2:30 pm68 °FSunny.20 mph28%30.04 "Hg10 mi
2:00 pm66 °FSunny.20 mph30%30.07 "Hg10 mi
1:30 pm68 °FSunny.24 mph28%30.07 "Hg10 mi
12:30 pm66 °FSunny.20 mph30%30.07 "Hg10 mi
12:00 pm64 °FPassing clouds.15 mph34%30.09 "HgN/A
11:30 am63 °FSunny.13 mph39%30.09 "Hg10 mi
11:00 am61 °FPassing clouds.13 mph42%30.09 "HgN/A
10:30 am61 °FSunny.13 mph45%30.12 "Hg10 mi
10:00 am57 °FSunny.13 mph51%30.12 "Hg10 mi
9:30 am57 °FSunny.10 mph51%30.12 "Hg10 mi
9:00 am54 °FSunny.10 mph58%30.12 "Hg10 mi
8:30 am52 °FSunny.10 mph62%30.12 "Hg10 mi
8:00 am52 °FPassing clouds.8 mph62%30.15 "HgN/A
7:30 am50 °FSunny.8 mph67%30.15 "Hg10 mi
7:00 am50 °FSunny.8 mph67%30.15 "Hg10 mi
6:30 am48 °FSunny.6 mph71%30.15 "Hg10 mi
6:00 am46 °FSunny.6 mph76%30.15 "Hg10 mi
5:30 am46 °FSunny.8 mph71%30.15 "Hg10 mi
5:00 am46 °FClear.6 mph71%30.15 "Hg10 mi
4:30 am46 °FClear.6 mph71%30.15 "Hg10 mi
4:00 am46 °FClear.6 mph71%30.15 "Hg10 mi
3:30 am48 °FClear.6 mph66%30.15 "Hg10 mi
3:00 am46 °FClear.6 mph71%30.15 "Hg10 mi
Weather by CustomWeather, © 2017

See weather overviewHow to use our weather pages